Temp
18 18 18 18 18 19 19 19 20 20 20 21 21 21 22 22 22 22 22 23 23 22 22 22 22 22 22 23 23 22 22 20 20 21 24 28 29 28 28 28 28 28 28 28 28 29 29 29 30 30 30 31 31 32 31 31 30 28 29 28 27 28 28 29 30 27 27 28 29 28 29 29 28 28 29 29 29 29 29 29 30 30 31 30 29 28 27 27
18 18 18 18 18 18 19 19 19 20 20 21 21 21 21 22 22 22 22 23 23 23 23 22 22 22 22 22 22 22 21 19 20 25 27 28 28 28 28 28 28 28 28 29 30 30 31 31 31 30 31 32 32 32 31 30 30 29 30 28 26 27 28 29 29 28 28 29 29 28 29 29 29 29 29 29 29 29 29 29 30 29 29 29 29 28 27 27
18 18 18 18 18 18 19 19 19 20 20 20 21 21 21 21 22 22 22 23 23 23 23 23 23 22 22 22 22 22 20 20 25 28 28 28 28 28 27 27 28 28 28 29 30 31 31 31 31 31 31 32 32 32 31 30 30 30 30 28 26 28 28 28 28 28 28 29 29 28 29 29 29 29 29 29 29 30 30 30 30 29 28 28 28 28 28 27
18 18 18 18 18 19 19 19 19 20 20 20 21 21 21 21 22 22 22 23 23 24 23 23 23 22 22 22 22 21 19 23 29 30 28 28 28 27 27 27 27 27 28 29 29 30 31 31 31 31 31 32 32 32 32 31 30 30 30 28 28 29 28 27 27 27 28 29 29 29 29 29 29 29 29 30 30 30 31 31 31 30 29 28 28 29 28 28
18 18 18 18 18 19 19 19 19 20 20 20 21 21 21 22 22 22 22 23 23 24 24 23 23 23 22 22 22 19 21 27 30 29 28 28 28 28 27 27 27 27 28 29 29 30 31 32 32 31 32 33 33 32 32 31 31 30 29 29 29 29 28 27 27 27 28 28 29 29 29 29 29 29 29 30 30 30 31 31 31 31 30 29 29 29 29 29
18 18 18 18 18 18 19 19 19 20 20 21 21 21 21 22 22 22 23 23 23 24 24 23 23 23 22 22 21 18 23 29 29 29 28 28 28 27 27 27 27 27 28 29 30 30 31 32 32 32 32 33 33 32 32 31 31 30 29 29 28 28 28 27 27 27 28 28 28 29 29 29 29 29 30 30 30 30 32 32 31 31 31 30 29 29 29 29
18 18 18 18 19 19 19 19 19 20 20 21 21 21 21 22 22 22 23 23 23 24 24 23 23 23 22 22 20 21 28 31 29 29 28 28 28 27 28 27 27 27 28 30 31 31 32 32 32 32 32 33 32 31 31 31 31 30 29 29 28 28 27 27 27 28 28 28 28 28 29 29 29 29 30 30 30 31 32 32 31 32 31 31 30 29 29 29
18 18 19 19 19 19 19 19 19 20 20 21 21 21 22 22 22 23 23 23 23 24 24 24 23 23 23 21 22 27 31 31 29 28 28 28 28 27 27 27 27 27 29 31 31 32 32 32 32 32 32 32 32 31 31 31 31 31 29 28 28 27 27 28 27 27 28 27 28 28 29 29 29 29 29 30 31 31 32 31 31 31 31 30 30 29 30 29
18 19 19 19 19 19 19 19 20 20 20 21 21 21 22 22 23 23 24 24 24 24 24 24 23 23 22 20 26 31 30 29 29 28 28 28 27 27 27 27 27 28 30 30 31 32 32 32 32 32 32 31 31 31 31 31 31 30 29 28 28 27 27 28 27 27 27 27 28 28 28 29 29 29 29 30 30 31 32 31 31 31 30 30 30 30 29 29
18 19 19 19 19 19 20 20 20 20 21 21 21 22 22 23 23 24 24 24 24 24 24 23 23 23 21 21 28 31 29 29 28 28 28 27 27 27 27 28 28 29 31 30 31 32 32 32 32 32 31 31 31 31 31 31 30 30 29 29 28 27 27 27 27 27 27 27 27 28 28 29 28 28 29 30 30 31 31 31 30 30 30 30 30 30 30 30
18 19 19 19 19 19 20 20 20 21 21 21 22 22 23 24 24 24 25 25 25 24 24 23 23 22 20 23 30 31 28 28 27 27 27 27 27 27 28 28 28 30 31 31 32 32 32 32 32 32 31 31 31 30 30 30 30 30 29 29 28 27 27 27 27 27 27 27 27 28 28 28 28 28 28 29 30 31 31 31 31 30 30 30 30 30 30 30
18 18 19 19 19 20 20 20 21 21 22 22 22 23 24 24 25 25 25 25 25 24 24 23 23 21 20 26 30 30 28 27 27 27 27 27 27 28 28 28 28 30 31 32 32 31 31 31 32 32 31 31 31 30 30 30 30 30 29 29 28 27 27 26 27 27 27 27 27 28 27 27 28 28 28 29 30 31 31 31 31 31 31 30 30 30 29 30
18 18 19 19 19 20 20 20 21 22 22 22 23 24 24 24 25 26 26 25 25 24 23 23 22 20 21 28 30 28 27 27 28 28 27 27 28 28 27 27 28 29 30 31 32 31 30 31 31 32 32 32 31 30 30 31 31 30 30 30 28 27 26 27 26 26 27 26 27 27 24 25 29 28 28 29 29 30 31 31 31 31 31 31 30 30 29 30
18 18 19 19 19 20 20 21 21 22 22 23 23 24 24 24 25 25 26 25 24 24 23 22 21 19 23 30 29 27 28 27 27 28 27 28 29 28 28 27 28 28 29 30 30 30 30 30 31 32 32 32 31 31 31 31 31 30 29 29 30 26 24 27 26 26 27 26 27 27 23 25 28 28 28 29 29 30 30 31 31 31 31 31 30 30 30 30
18 18 18 19 19 20 20 21 21 22 23 23 23 23 23 24 24 25 25 25 24 23 22 21 20 21 27 31 28 27 28 27 28 28 28 29 30 30 29 28 28 28 28 29 30 30 30 30 31 32 32 31 31 31 32 31 31 32 27 26 30 27 24 27 26 26 27 26 27 26 24 25 28 28 28 29 29 30 30 31 31 31 31 31 30 30 30 30
18 18 18 19 19 19 20 21 21 22 23 23 23 22 22 23 24 24 24 23 23 22 21 22 21 23 28 30 28 28 28 29 30 29 28 29 31 31 30 29 29 29 28 29 30 30 31 31 32 32 32 31 31 32 32 29 29 32 29 24 27 27 26 27 26 26 27 27 27 26 25 26 28 28 28 28 29 29 30 31 31 31 31 31 31 31 30 30
18 18 19 19 19 19 20 20 21 22 22 23 22 22 22 22 22 23 22 22 22 21 20 22 23 24 28 29 28 29 30 30 29 29 29 29 30 31 31 31 31 30 30 30 30 31 32 32 31 32 32 32 32 33 28 24 24 28 29 27 27 28 27 26 25 26 27 27 28 27 27 27 27 28 28 28 29 29 30 30 31 31 31 31 31 31 31 30
17 18 19 19 19 19 20 20 21 22 22 22 22 21 21 22 21 21 21 20 20 20 20 22 24 26 28 29 30 31 31 30 29 29 29 28 30 30 31 31 32 31 31 31 31 32 32 32 32 32 33 32 33 32 26 24 25 25 26 26 26 28 27 26 26 27 27 27 27 27 27 27 27 28 27 27 28 28 29 30 31 31 31 31 31 31 31 30
17 18 19 19 20 20 20 20 21 22 22 22 21 20 21 21 20 20 20 21 22 25 26 26 27 28 29 30 32 31 30 30 29 30 29 29 29 30 31 31 31 32 31 31 32 32 32 32 32 30 31 31 32 32 29 29 30 28 28 27 26 26 27 28 28 27 28 27 28 28 26 26 26 27 26 27 28 28 29 30 30 31 31 31 31 31 31 31
16 17 18 19 20 20 20 20 21 22 22 21 20 20 22 24 25 25 24 24 27 30 30 30 30 31 30 31 32 30 30 30 30 31 30 30 30 31 31 31 31 31 31 32 32 32 32 31 30 30 32 33 33 33 33 33 32 31 31 29 28 27 26 29 28 28 29 28 28 28 27 26 26 27 27 27 28 29 29 29 30 30 31 31 31 31 31 31
17 17 18 19 20 20 20 20 21 22 22 21 19 22 27 28 29 28 27 28 31 31 30 31 31 31 31 32 32 31 31 30 31 32 30 30 31 31 31 31 31 31 31 32 32 32 31 29 31 33 33 33 33 33 33 33 32 32 31 29 28 28 27 28 29 28 28 28 28 29 28 26 27 28 27 27 27 29 29 29 29 30 30 31 31 31 31 31
17 17 18 19 20 21 20 21 21 22 22 21 21 26 29 27 26 26 26 29 31 31 30 30 30 30 31 31 31 31 31 31 31 31 30 30 32 31 31 31 31 32 32 31 31 31 29 29 32 34 33 33 33 33 33 33 33 32 31 29 27 28 28 27 28 28 28 28 28 29 28 28 29 29 28 27 27 29 29 29 30 30 30 30 31 31 31 31
17 18 18 19 20 21 21 21 22 22 22 22 24 28 27 24 24 24 25 28 30 30 30 30 30 30 31 30 30 30 31 32 31 31 31 30 31 32 31 31 31 32 31 31 31 29 27 30 34 34 33 33 33 33 33 32 32 32 31 28 26 29 28 25 27 29 28 28 28 29 29 29 31 30 29 28 28 29 28 28 29 29 30 30 31 31 31 31
17 18 18 19 20 21 22 21 22 22 22 23 25 26 25 23 24 24 26 29 30 30 30 30 30 31 31 31 30 30 31 32 32 32 32 31 32 31 31 32 31 31 31 32 32 30 29 32 34 34 33 33 32 33 33 31 30 32 32 29 28 30 29 27 27 28 28 28 28 29 26 27 31 30 30 30 29 29 28 28 28 28 29 30 30 31 31 31
18 17 18 19 20 22 22 21 23 22 22 24 25 25 23 23 24 24 26 29 29 30 30 30 30 31 32 31 30 32 32 32 33 33 32 32 32 31 32 32 31 31 32 32 32 32 32 33 33 33 33 33 32 32 33 31 29 30 32 32 31 31 30 29 29 28 26 25 27 28 23 24 29 31 31 31 29 29 28 28 28 28 28 28 29 30 31 31
18 18 18 18 20 22 22 23 24 22 24 26 25 24 23 24 24 24 27 28 27 29 31 30 30 31 31 31 31 32 32 31 33 33 32 33 33 32 32 32 32 32 32 32 32 32 33 33 32 32 33 33 33 32 34 33 29 27 30 32 33 33 30 29 28 26 24 23 27 28 24 22 26 29 31 31 29 29 29 29 29 29 28 28 28 29 30 31
18 18 17 17 19 20 22 24 23 23 25 26 24 23 24 24 24 24 26 25 24 29 31 30 30 31 31 32 32 31 29 30 32 32 32 33 33 32 31 32 32 31 32 32 29 30 33 32 32 32 33 33 32 31 34 34 29 26 30 33 33 32 31 30 29 27 26 26 27 28 27 23 23 27 31 30 29 29 29 29 29 29 29 28 28 28 29 30
19 18 17 17 19 18 19 20 21 24 26 24 23 23 24 24 24 26 25 22 24 31 32 30 30 30 31 32 32 32 31 31 31 31 32 32 32 32 31 32 33 32 33 30 26 29 33 32 32 33 32 32 32 33 34 35 31 29 32 33 32 33 32 32 30 27 28 26 23 25 27 23 22 26 30 30 29 29 29 29 29 29 29 29 29 29 29 30
19 18 17 18 19 19 19 18 19 23 24 22 23 23 24 24 25 27 25 22 27 31 31 31 30 31 32 31 31 32 32 32 31 31 32 31 31 32 31 32 33 32 32 31 29 31 33 32 33 33 33 33 33 33 34 34 33 31 32 33 33 33 32 32 31 27 26 24 22 24 26 23 22 25 29 29 29 30 32 31 30 30 30 29 30 29 29 29
19 18 17 18 18 17 18 18 19 22 22 22 23 23 24 25 26 25 22 23 28 30 30 31 31 31 32 31 31 32 32 32 32 31 31 32 31 32 32 32 32 32 33 32 32 33 33 32 32 33 33 33 33 32 32 33 33 32 32 33 32 32 32 31 30 27 24 22 23 24 25 24 23 24 28 29 29 31 33 32 31 31 30 30 30 29 29 28
20 19 18 19 18 17 19 21 21 22 22 22 23 24 25 27 27 23 22 26 28 29 31 31 31 32 31 31 32 32 32 32 32 31 31 32 31 31 31 31 31 31 31 31 32 33 33 32 32 33 33 33 33 32 32 33 33 33 33 32 28 27 28 27 26 26 23 22 23 25 26 24 22 24 29 31 31 32 32 32 32 31 30 30 30 30 30 29
21 20 20 19 19 18 20 22 21 21 22 22 23 26 27 26 25 22 24 27 26 28 31 31 31 32 32 32 32 32 32 32 32 32 32 32 31 32 31 31 31 28 25 27 29 31 32 33 34 33 32 33 33 32 31 32 33 33 32 28 24 23 23 23 22 23 22 22 24 25 25 24 23 27 32 33 32 31 31 31 31 31 30 30 30 30 30 30
21 21 20 20 19 19 19 20 21 21 23 22 24 28 28 24 22 24 27 28 26 28 31 31 31 32 31 31 32 33 32 32 32 32 33 33 32 32 32 33 34 29 26 27 27 26 28 32 34 32 32 33 34 31 28 29 32 32 30 26 23 22 22 22 22 22 22 22 24 26 25 23 24 29 33 33 32 31 31 31 31 30 30 30 30 31 31 31
21 21 21 20 19 18 18 19 20 21 22 23 26 29 26 22 23 26 27 29 29 30 31 30 31 31 31 31 32 33 32 31 33 32 32 32 31 31 32 33 33 32 31 28 26 25 24 26 31 32 32 33 34 34 31 32 32 32 33 30 25 23 23 22 22 22 23 22 23 24 24 23 23 27 31 32 32 31 31 30 30 30 30 29 30 30 30 31
22 21 21 20 19 19 19 18 19 20 21 25 28 27 23 22 24 26 27 29 30 30 31 31 31 30 30 31 32 33 31 30 32 33 32 32 30 31 32 33 33 33 32 27 26 27 24 24 31 33 32 33 34 34 35 34 31 32 35 31 26 27 26 23 23 23 23 23 23 23 24 26 27 29 32 32 31 31 31 30 31 31 31 30 29 30 30 30
22 21 21 21 20 20 20 20 20 20 22 28 28 25 24 25 27 28 28 29 29 30 30 30 30 29 27 30 31 32 32 31 32 32 31 32 32 32 33 34 34 33 32 29 28 28 23 25 32 33 31 34 33 34 35 32 29 31 30 27 28 33 30 24 22 24 23 22 23 23 23 27 29 30 32 32 31 31 31 31 31 31 31 31 30 30 29 30
21 22 23 23 22 21 22 21 21 21 24 29 27 24 27 29 28 29 29 29 29 30 29 27 28 28 26 27 29 32 32 31 32 30 29 30 31 32 33 34 34 34 34 32 30 30 27 25 31 33 31 32 33 33 34 34 32 30 27 28 32 33 31 27 23 22 23 22 23 23 23 24 24 25 29 31 31 31 31 32 31 30 31 31 30 29 29 29
18 21 24 24 22 22 23 22 22 24 27 28 26 26 28 29 28 28 29 29 28 30 29 27 27 29 27 26 28 32 32 29 30 30 29 29 29 32 34 33 33 34 34 34 31 32 30 25 28 34 32 31 33 33 31 32 34 32 30 33 32 26 25 25 23 22 22 22 22 23 23 23 23 24 28 30 31 31 31 31 31 31 31 31 30 29 28 28
18 23 25 24 22 22 23 23 23 26 28 27 27 27 28 28 29 28 28 29 28 29 29 28 29 29 29 29 29 32 31 29 30 30 28 29 29 31 34 34 33 33 33 34 33 33 33 26 25 32 34 32 32 31 28 29 33 33 33 34 33 28 25 25 24 24 22 22 22 22 22 23 25 28 30 31 31 32 31 31 31 30 30 30 30 29 28 28
22 25 26 23 22 23 23 23 25 28 27 27 27 28 27 28 29 29 29 28 29 29 29 30 30 29 30 31 30 31 32 31 32 31 29 30 30 31 33 34 33 33 32 34 33 33 33 28 24 29 33 30 29 31 30 30 31 31 29 29 29 29 28 27 26 25 23 22 22 22 22 23 27 31 32 31 31 31 31 30 30 30 30 29 29 29 28 28
23 26 25 23 22 23 24 25 27 28 27 27 28 27 27 27 28 29 29 28 28 29 29 29 30 29 30 30 30 31 32 32 32 31 31 32 30 30 33 34 33 33 32 32 34 32 32 29 25 25 28 26 28 32 33 32 33 32 30 29 29 28 26 24 24 24 24 23 22 23 22 23 28 32 31 31 32 31 30 30 30 30 29 28 28 28 27 27
24 26 25 23 22 23 25 27 27 27 28 28 27 27 27 26 27 29 28 28 28 29 29 29 29 30 30 30 31 31 31 31 32 31 31 32 33 32 33 33 33 34 33 33 34 33 33 31 27 24 27 29 31 33 31 31 33 34 33 33 33 31 27 23 22 23 24 23 24 23 22 24 30 31 31 31 31 30 30 30 30 29 28 27 27 27 27 27
24 25 25 24 23 24 26 27 27 27 27 27 27 27 27 27 27 28 28 28 29 29 29 29 29 30 30 30 31 31 31 30 31 32 32 33 34 33 32 32 33 33 34 33 33 32 32 31 26 24 28 31 32 32 32 32 33 32 32 34 33 32 30 28 26 26 24 23 23 23 21 24 29 30 30 30 30 30 30 30 30 29 28 27 26 26 26 26
23 23 25 24 24 25 26 27 27 27 27 26 26 27 27 27 27 28 28 28 28 29 28 29 30 30 30 30 30 31 30 28 30 32 33 33 33 31 31 32 32 33 34 33 34 32 29 29 26 23 24 26 27 28 29 30 31 31 32 33 33 33 32 30 29 27 24 23 23 23 22 24 28 30 30 30 29 29 30 30 29 29 28 27 27 27 26 26
22 23 25 25 26 26 25 26 26 27 27 26 26 27 27 27 27 27 27 28 28 28 28 29 30 29 30 30 29 30 31 29 29 32 32 33 33 30 30 32 32 33 34 33 34 33 30 30 28 23 22 22 22 23 25 27 30 31 32 32 32 32 31 29 26 24 23 23 24 23 22 25 29 30 29 30 30 29 30 30 28 28 28 27 27 26 26 26
22 24 25 26 27 26 25 25 25 26 26 25 25 26 26 27 28 27 27 27 28 28 28 29 29 29 29 30 29 30 31 31 30 31 32 33 33 31 30 31 32 33 32 30 32 34 32 31 30 26 24 24 24 25 29 31 29 28 29 30 31 32 32 29 25 23 23 24 23 24 25 25 28 31 30 30 30 29 30 29 28 28 28 27 27 26 25 26
22 23 24 24 24 25 25 25 25 25 25 25 25 26 26 26 27 27 27 27 27 28 28 28 29 29 29 29 29 29 31 32 31 31 31 32 33 31 29 30 32 31 30 30 33 34 31 28 30 30 28 29 30 30 32 32 29 28 29 29 30 32 31 29 25 25 26 24 22 26 28 25 27 32 31 31 31 30 30 30 29 28 28 27 26 25 25 25
22 22 23 21 22 24 25 24 24 24 24 24 24 25 25 26 27 26 27 27 28 28 28 28 28 29 29 29 28 28 30 30 30 31 31 31 32 32 30 31 31 30 30 32 33 34 31 28 30 31 29 31 33 32 32 32 31 31 31 30 30 31 30 28 27 28 28 24 23 27 28 26 29 32 32 31 31 31 30 29 28 28 27 26 26 25 25 25
22 22 22 21 21 23 24 23 23 23 23 24 24 24 25 25 26 26 26 26 27 28 27 27 28 28 28 28 27 28 29 27 27 30 31 30 32 32 31 31 31 30 32 32 32 32 30 28 31 32 29 30 32 31 32 32 30 30 31 31 31 31 30 29 29 31 30 27 28 29 28 28 31 32 31 30 30 30 29 28 27 27 26 26 26 26 25 25
20 20 21 21 22 23 23 23 23 23 24 23 23 24 25 25 25 26 26 26 26 27 27 27 27 28 28 28 27 28 29 27 27 29 29 29 30 32 31 31 32 31 32 32 32 31 29 27 31 32 27 27 30 31 31 31 30 29 29 31 32 31 30 30 30 31 30 28 30 30 27 28 31 31 29 28 28 29 28 27 27 26 26 26 26 26 25 25
16 17 17 19 21 22 22 23 23 23 24 24 24 24 24 25 25 25 25 26 26 27 27 26 26 27 28 28 28 28 28 27 27 28 28 29 29 30 30 31 32 32 32 32 32 32 30 28 30 30 24 24 28 30 29 30 30 27 27 30 30 29 29 30 30 31 29 28 28 27 25 28 30 29 28 27 28 28 28 28 27 26 26 26 26 26 25 25
15 16 16 17 20 21 22 23 23 22 23 24 24 24 24 24 25 24 24 26 27 27 27 26 26 26 27 28 27 27 27 27 27 28 28 29 29 30 30 30 31 31 32 32 32 32 32 30 28 27 23 23 28 29 29 28 26 24 26 30 31 30 30 31 31 31 31 30 28 26 27 29 30 29 28 28 28 29 29 28 28 27 26 26 25 26 25 25
Height
809 808 807 805 804 803 802 801 800 799 798 798 796 796 795 794 793 792 791 789 788 787 786 785 784 783 782 781 780 780 779 778 779 779 778 775 774 775 776 777 778 779 779 780 781 780 780 780 779 779 778 776 775 774 774 774 775 784 791 796 797 797 798 792 792 801 805 800 796 797 794 797 802 798 793 791 794 796 797 796 794 793 791 792 796 800 805 808
809 808 806 805 804 803 802 801 800 799 798 797 796 796 794 793 792 791 790 789 788 787 786 785 784 783 781 780 780 779 778 778 778 777 775 775 775 776 776 777 778 779 779 780 779 778 778 778 778 777 778 777 775 774 777 776 776 786 790 797 805 802 798 791 790 794 794 795 795 795 794 794 798 797 793 798 803 799 801 801 797 799 798 797 799 803 806 808
809 808 807 805 804 803 802 801 800 799 798 797 796 795 794 793 792 791 790 789 788 787 786 785 784 782 781 780 779 779 778 778 777 775 774 774 775 776 777 778 778 779 779 780 779 777 777 776 776 777 778 778 775 775 778 778 779 784 784 798 806 797 794 791 790 792 791 791 794 797 794 794 796 793 794 800 802 800 802 802 799 804 804 801 801 803 806 807
809 808 807 805 804 803 802 801 800 799 797 797 795 794 794 792 791 791 789 788 788 787 786 784 783 782 781 779 779 779 778 779 777 774 774 775 776 776 777 778 778 779 779 779 779 778 777 776 776 776 779 779 776 776 779 779 780 783 786 798 798 788 795 796 791 792 790 790 794 796 796 798 795 791 795 798 803 804 799 795 795 800 802 802 802 802 805 807
810 809 807 806 804 803 802 801 799 798 797 796 795 794 793 792 791 790 789 788 787 786 785 784 783 782 781 779 779 778 779 785 780 772 775 775 776 777 777 778 779 779 779 780 779 778 777 775 775 777 780 780 777 778 780 777 776 786 792 793 791 787 795 797 791 792 790 791 794 796 798 797 793 793 796 796 804 805 794 790 790 792 796 799 801 803 804 805
810 809 807 806 804 803 801 800 799 798 797 795 794 793 792 791 790 789 788 787 786 786 785 784 783 782 781 779 778 778 781 786 777 772 776 775 777 778 778 779 778 779 780 780 778 778 777 775 777 780 780 779 780 781 781 777 775 790 796 789 790 790 794 796 792 792 790 793 797 797 795 792 795 798 795 795 800 796 787 786 787 789 793 796 799 802 804 805
811 809 807 806 804 803 801 800 799 797 796 794 793 792 791 790 789 788 787 786 786 785 785 784 783 782 780 779 779 777 776 778 773 773 776 775 777 777 778 779 778 780 779 779 778 777 776 776 779 781 782 782 782 783 781 778 777 788 795 792 791 791 793 794 792 792 791 795 796 794 794 794 799 799 795 796 795 790 785 784 787 789 791 796 799 801 803 804
810 809 807 806 804 803 801 799 798 796 795 793 792 791 790 789 787 787 786 785 785 784 784 783 783 782 780 780 779 776 774 774 773 774 775 775 777 776 778 779 778 780 779 778 777 775 776 778 780 780 784 784 781 783 781 781 781 784 793 794 792 793 793 791 791 794 793 795 794 794 797 797 796 796 796 797 792 787 786 786 788 791 793 796 799 801 802 804
811 809 807 806 804 802 800 799 797 795 793 792 791 789 788 787 786 786 785 784 784 784 784 782 783 781 781 780 776 776 776 774 773 774 775 775 776 777 778 778 779 779 778 779 776 775 776 778 780 778 784 783 779 783 781 784 789 786 790 792 792 795 793 792 794 795 795 795 795 798 801 798 794 795 798 794 790 788 785 788 790 792 796 797 799 801 802 804
810 808 807 805 803 802 800 798 796 794 792 791 789 787 786 785 784 784 783 783 783 783 783 783 782 781 782 779 776 779 777 772 773 774 774 776 776 777 778 778 778 778 778 778 776 775 775 777 777 774 779 780 779 783 782 785 789 784 786 790 792 795 794 794 797 796 796 796 796 800 802 799 794 799 805 795 788 788 787 791 792 794 798 797 798 800 802 804
810 808 807 805 803 801 799 797 795 793 791 789 787 786 784 783 783 782 782 782 781 782 782 782 782 781 782 779 778 779 774 772 774 774 774 776 776 777 777 777 778 778 778 777 777 776 775 776 774 774 780 780 780 785 783 782 783 783 786 791 793 794 796 796 798 797 797 798 797 797 800 800 797 802 807 797 788 787 789 793 793 795 797 797 798 800 802 803
810 808 806 804 802 800 798 796 793 791 789 787 786 784 782 781 781 780 780 780 780 781 781 781 782 781 781 779 776 774 772 773 774 774 775 775 776 777 777 778 778 778 777 776 777 777 777 776 774 779 781 778 783 789 785 779 780 784 786 794 798 797 800 799 799 798 797 801 795 795 807 807 802 803 800 793 789 788 790 794 794 795 797 798 799 800 803 803
809 807 805 803 801 799 797 794 792 790 788 786 784 782 781 780 779 779 779 779 780 780 780 781 781 781 783 779 772 771 773 773 774 774 775 775 776 777 776 778 778 778 778 776 776 777 778 776 775 778 776 777 785 785 780 777 781 787 787 792 799 803 806 800 798 798 798 801 792 799 820 815 802 801 796 792 791 792 793 794 794 795 796 798 799 801 803 803
809 807 805 802 801 798 796 793 791 788 786 784 782 781 780 778 778 777 777 778 778 779 780 781 781 782 782 776 771 772 773 773 774 774 775 776 776 776 777 777 778 779 779 777 777 777 777 776 775 775 774 776 780 778 780 783 784 789 792 793 792 804 813 802 797 801 801 801 791 801 822 815 803 800 796 793 791 793 796 795 794 795 796 797 799 801 802 802
808 806 804 802 800 797 795 792 790 787 785 783 781 781 779 778 777 776 776 777 778 779 780 781 781 781 779 774 771 772 772 773 774 774 775 775 775 775 776 778 779 779 779 779 778 777 777 776 775 778 778 774 777 783 788 788 786 787 797 801 790 796 810 804 798 799 803 802 793 805 819 811 804 800 796 794 793 794 796 796 795 795 796 797 799 800 801 801
807 805 803 801 799 797 794 791 789 786 784 782 781 781 779 778 776 776 776 776 778 779 780 782 781 781 781 775 771 772 772 772 772 774 775 775 774 774 775 777 778 778 779 778 778 777 775 775 775 777 779 780 783 788 790 794 795 790 793 802 797 795 800 803 803 798 800 802 798 808 816 810 804 800 797 795 795 797 797 797 795 795 796 796 798 799 800 801
806 804 802 800 798 796 794 791 788 785 783 782 781 781 780 778 777 777 777 778 779 779 780 781 779 780 779 773 772 772 770 770 772 773 774 775 775 774 775 776 776 777 777 777 778 777 774 775 779 779 779 784 784 785 797 807 805 795 790 795 797 796 796 804 810 801 798 803 804 806 809 808 806 800 799 797 796 800 799 798 796 795 796 796 796 798 799 801
805 803 801 799 797 795 793 790 787 785 783 782 781 781 780 779 778 779 779 779 779 780 782 781 779 785 783 773 772 771 767 769 772 772 774 775 775 775 775 774 774 775 777 779 778 777 778 777 780 784 784 787 785 787 802 807 802 800 797 796 795 794 796 803 809 804 801 806 807 807 808 811 808 802 802 800 798 801 800 797 796 794 795 796 797 797 798 800
804 802 800 798 796 794 792 789 787 785 783 782 781 781 780 780 779 779 780 780 780 780 781 779 777 783 782 771 766 767 767 769 771 772 773 774 775 776 775 774 774 776 782 786 782 778 779 781 785 791 790 789 788 786 792 793 793 798 796 797 797 797 799 800 802 800 799 806 808 808 813 815 813 807 806 803 798 801 800 797 797 795 795 796 797 796 797 800
803 801 799 797 795 793 791 789 786 785 783 782 782 782 781 780 779 779 778 777 774 771 770 770 768 771 771 766 764 767 768 769 770 770 772 773 774 775 775 775 776 780 784 786 784 778 780 790 792 789 785 784 784 782 783 784 788 792 792 793 794 797 803 801 801 798 794 803 806 805 811 816 813 807 806 803 800 800 801 801 800 798 796 795 796 796 797 799
802 800 798 796 794 791 790 788 786 784 783 782 782 781 778 778 781 781 777 771 764 762 765 763 762 766 766 764 764 765 768 771 769 768 772 772 771 777 778 777 783 787 784 782 782 779 784 795 789 779 778 780 781 781 781 784 788 791 791 791 791 795 802 801 801 799 795 802 804 801 809 815 811 805 803 803 803 802 799 800 801 799 798 796 795 796 796 796
801 799 796 795 792 790 788 786 785 784 782 782 781 778 775 777 780 780 778 775 764 759 763 762 763 766 763 763 764 764 767 773 773 769 770 771 772 778 779 779 786 786 782 784 787 789 795 795 782 774 777 779 781 782 783 786 789 790 788 790 792 794 801 804 800 799 798 802 802 800 805 806 801 799 801 802 802 799 796 796 798 797 798 797 796 796 796 796
801 797 795 793 790 789 787 785 784 783 782 782 780 777 776 778 778 777 779 779 770 761 761 763 765 765 764 765 764 765 769 773 776 772 768 771 773 774 778 782 784 783 785 789 790 795 798 789 774 771 776 782 784 783 785 788 788 789 788 790 792 792 799 805 803 801 799 800 801 801 802 798 793 795 798 797 796 795 795 796 795 795 796 796 794 793 794 796
799 796 794 791 789 788 785 784 783 782 782 781 779 778 778 779 778 778 777 776 772 764 759 760 760 761 763 762 760 765 768 766 769 770 766 770 773 773 776 778 782 786 786 785 786 790 789 778 770 772 778 782 786 786 786 789 787 784 785 788 790 790 795 800 802 802 801 802 802 802 805 799 792 797 797 792 792 794 795 797 797 796 794 794 793 792 792 793
798 795 792 789 787 785 784 783 781 782 781 778 779 778 778 778 776 777 778 777 774 766 759 759 760 759 757 758 761 761 764 764 763 763 763 766 770 775 777 774 779 787 784 783 786 787 781 773 772 779 781 781 786 787 784 787 786 780 782 784 784 789 794 798 801 803 806 810 804 803 818 812 792 793 795 790 794 796 794 796 797 796 794 795 795 793 791 790
797 794 790 788 785 783 782 780 779 781 779 776 778 777 778 778 776 777 779 781 776 767 765 763 762 761 756 759 759 757 768 771 760 757 762 764 764 769 778 776 777 782 780 780 783 781 777 773 775 781 782 782 788 786 779 781 785 785 784 782 780 786 793 797 800 803 807 811 804 800 818 819 798 792 792 791 797 797 793 794 793 794 794 794 795 794 792 791
795 792 789 786 783 782 780 778 779 780 777 776 777 777 778 776 776 777 781 790 782 766 765 765 762 761 758 758 755 762 779 773 761 762 761 763 763 765 777 780 778 780 775 780 787 781 775 778 780 781 782 784 787 783 775 775 785 789 783 779 782 786 791 794 795 799 799 802 804 799 806 816 807 797 792 792 797 798 795 795 791 790 791 791 791 792 790 789
793 790 786 783 781 781 780 779 780 777 776 777 775 777 777 775 777 777 787 802 786 761 761 763 759 757 755 756 756 764 771 764 769 772 759 762 766 766 778 778 775 778 773 781 792 781 773 780 782 780 783 784 780 776 770 772 784 788 780 778 781 784 787 788 790 795 795 801 811 803 801 815 811 796 792 792 795 797 794 793 790 788 788 788 788 788 788 787
791 787 783 780 778 778 778 779 779 776 776 775 775 777 775 775 777 777 791 801 779 758 759 760 760 759 758 761 762 763 763 761 771 769 759 765 766 766 777 773 771 776 773 778 784 777 773 774 773 775 779 778 774 773 770 773 781 782 778 778 780 782 785 787 789 793 798 808 815 805 801 815 810 792 791 795 793 792 787 784 785 784 784 785 784 785 786 786
788 785 781 778 777 777 777 777 776 775 775 775 776 775 774 777 779 789 804 796 772 763 761 759 763 763 763 769 770 766 765 765 766 764 765 768 766 766 770 766 769 776 775 775 777 774 770 769 769 773 773 771 772 774 773 774 776 777 779 782 785 785 785 789 789 791 808 819 813 804 802 812 812 792 786 792 790 785 782 780 782 782 782 782 781 782 784 784
786 782 780 777 777 777 776 775 774 774 774 775 775 774 776 779 782 798 803 781 767 768 764 763 766 763 765 771 771 769 768 767 765 769 773 771 772 774 773 774 776 779 781 780 777 773 772 774 773 770 767 768 773 777 776 773 773 777 781 785 794 797 795 799 799 801 821 827 813 804 802 811 817 798 782 785 783 780 782 781 781 782 781 780 779 779 779 781
783 780 779 777 776 776 775 774 773 773 774 774 775 773 777 787 792 794 785 770 774 774 765 766 766 763 765 767 767 767 769 770 766 768 772 773 776 776 776 778 777 785 791 782 778 777 775 773 770 769 768 766 773 781 783 780 776 779 782 788 802 813 818 822 820 819 823 821 810 804 806 813 810 791 779 781 780 779 780 779 779 780 780 779 777 776 775 776
782 779 778 777 776 775 775 773 773 774 773 774 775 772 779 797 798 784 772 771 777 771 762 766 765 763 768 769 768 766 766 770 767 766 767 768 774 772 771 769 766 779 786 777 778 782 781 775 770 774 774 765 768 779 788 787 782 782 784 789 800 812 828 831 822 819 816 813 807 802 810 813 799 783 777 777 777 777 776 776 777 777 778 778 775 774 773 773
780 778 778 776 775 774 773 772 772 772 773 773 774 777 789 801 790 776 773 771 770 767 764 767 767 767 770 769 766 763 767 771 764 766 770 770 777 776 770 768 766 771 775 777 778 779 787 787 774 774 774 767 766 769 772 774 777 778 774 781 790 794 810 817 809 808 809 809 811 811 814 809 799 791 780 773 773 774 774 775 775 774 775 776 774 773 773 773
779 778 778 776 775 774 771 771 771 772 773 772 774 783 794 795 780 773 775 770 768 769 765 765 767 771 771 767 763 759 765 770 763 766 772 771 775 773 768 767 766 768 773 781 780 775 786 785 768 766 767 765 768 764 760 767 778 777 769 781 791 781 787 800 800 799 801 805 810 811 806 792 787 787 775 772 775 773 775 776 774 775 773 774 776 775 774 773
780 778 778 777 776 775 773 773 772 773 772 771 778 786 785 780 774 773 774 771 772 772 770 767 768 772 771 767 767 763 762 765 765 768 770 768 768 766 764 761 759 765 769 774 777 776 785 783 768 767 768 764 767 763 760 770 780 779 778 786 782 769 776 795 804 799 800 812 811 803 797 784 781 785 776 775 779 776 777 776 774 777 774 774 777 776 775 775
780 778 777 777 777 776 775 774 773 774 772 772 781 783 775 771 772 772 771 771 771 771 773 773 770 770 770 767 767 766 764 765 766 769 770 769 768 763 762 760 755 759 760 762 769 769 775 782 770 767 774 769 762 763 763 763 769 779 784 778 771 773 778 788 807 812 812 820 812 798 796 791 792 797 786 781 784 781 778 776 776 778 776 776 777 777 777 775
780 779 777 777 777 775 774 774 774 773 772 775 782 780 774 772 771 770 770 771 771 771 774 774 770 767 768 767 763 760 765 769 768 769 769 770 767 758 758 760 755 754 753 755 767 766 768 782 776 765 772 772 762 766 774 768 763 770 773 766 772 794 798 794 808 819 820 822 812 799 797 794 794 794 786 784 785 782 779 778 778 778 778 778 777 777 778 775
781 778 776 776 776 775 774 774 773 771 774 780 782 779 775 773 770 769 769 770 771 773 773 772 770 768 766 765 762 760 764 766 764 766 768 768 766 756 752 755 755 755 753 753 764 765 765 783 786 769 765 771 768 771 780 778 769 767 768 766 771 785 794 796 799 804 810 818 815 807 803 797 789 782 781 784 782 779 781 781 781 780 779 779 778 778 779 778
780 777 776 776 776 774 773 773 772 773 778 780 778 776 775 774 770 767 766 768 770 770 772 771 770 771 768 764 762 761 762 762 760 763 764 763 764 758 750 751 754 757 755 754 760 762 765 779 787 776 769 775 777 773 772 774 774 774 777 779 779 781 784 790 792 791 798 811 815 816 810 796 784 778 779 782 779 777 780 781 782 781 779 780 780 779 779 779
779 778 777 776 775 774 773 773 774 775 777 777 776 775 776 774 771 767 765 767 768 766 767 770 770 770 769 767 764 761 762 762 759 760 761 759 761 760 751 746 751 755 758 761 761 762 767 774 780 780 777 778 775 766 763 766 767 770 773 774 777 781 786 799 806 795 791 801 806 813 814 796 780 777 776 776 776 777 778 780 782 781 781 782 781 780 780 780
780 780 778 776 776 774 773 775 775 775 775 775 775 775 775 774 773 770 766 767 768 765 765 768 769 768 768 766 764 762 763 762 759 759 759 755 754 753 748 744 746 749 755 762 759 755 759 767 775 777 774 772 769 764 764 766 763 764 767 765 767 773 779 798 810 799 792 797 797 804 812 797 778 774 774 774 775 775 777 778 780 781 782 783 782 781 781 780
783 782 777 775 775 773 775 778 777 777 775 773 773 773 773 773 772 770 768 768 768 767 767 768 766 766 765 763 763 763 763 762 759 756 755 753 749 746 745 745 746 747 751 757 758 756 760 768 777 780 773 768 766 763 763 764 765 769 769 765 767 770 771 779 788 787 792 797 796 806 813 798 781 775 774 776 777 776 777 777 778 781 782 783 783 782 781 781
787 783 777 776 775 773 776 779 777 776 775 774 776 774 771 771 771 770 770 769 767 767 769 767 764 763 762 760 762 763 762 764 761 753 752 754 750 747 746 744 746 748 749 751 753 757 766 772 778 787 791 787 783 780 776 773 771 771 768 767 769 768 771 777 778 785 795 793 792 806 807 791 782 778 775 777 779 778 778 777 778 781 782 783 783 782 782 782
788 784 778 774 772 772 776 777 775 777 777 778 779 776 773 772 769 768 770 768 765 765 768 766 761 760 760 760 763 761 759 763 762 754 752 752 749 748 747 746 746 746 744 745 743 747 762 770 774 786 799 803 802 797 787 777 771 768 768 772 773 770 775 782 782 792 802 793 790 800 797 785 780 780 779 779 780 781 779 778 779 781 782 782 782 782 782 781
790 786 781 775 771 772 776 775 776 778 778 780 780 776 776 774 768 766 768 768 765 764 766 763 759 761 762 762 765 764 758 756 757 756 755 752 748 748 748 747 747 745 747 748 744 745 759 767 767 775 783 785 786 783 772 766 769 772 772 774 774 771 772 778 785 792 793 791 793 791 786 785 783 780 781 780 779 781 780 779 781 780 781 781 781 783 783 781
792 790 787 785 781 777 777 776 778 779 778 781 781 777 776 775 770 768 767 766 765 764 765 763 760 763 764 763 765 764 757 754 756 757 756 751 747 748 749 748 747 748 750 749 743 748 764 769 765 768 771 767 767 767 764 765 769 770 771 773 773 772 773 779 786 785 782 792 798 785 781 789 784 775 778 778 776 779 778 778 780 779 780 781 782 783 783 782
793 791 789 792 791 784 781 781 781 781 781 781 780 778 778 776 773 772 769 765 763 763 766 765 762 762 762 763 766 764 759 759 759 757 755 752 750 751 752 750 748 748 750 749 745 748 762 767 761 763 767 764 764 765 764 766 768 766 767 770 771 773 776 779 780 777 779 791 793 782 783 789 780 771 774 773 773 775 775 776 778 778 780 782 782 783 783 783
793 791 788 791 791 786 783 784 784 784 782 781 780 779 778 777 774 772 770 769 767 764 765 768 764 761 760 761 765 765 762 763 763 758 755 755 752 751 754 755 751 747 747 750 749 750 759 765 761 762 767 767 766 767 766 766 769 769 768 767 768 771 773 774 774 772 776 782 780 778 784 783 772 769 771 772 771 772 774 776 778 779 782 782 783 783 783 783
797 796 793 792 790 785 784 784 784 785 781 781 783 778 775 776 775 771 769 772 772 766 764 768 766 762 761 760 763 763 761 762 764 760 758 759 755 751 752 751 749 748 748 750 751 752 760 768 765 762 769 771 768 768 768 768 770 771 769 766 767 769 771 772 772 771 776 781 777 778 785 782 770 767 771 774 773 773 775 778 779 780 781 782 783 783 783 783
804 803 801 799 792 786 785 783 783 785 781 778 779 776 774 775 773 773 771 767 768 767 765 767 768 763 760 759 761 761 759 759 761 757 755 756 754 751 751 747 745 750 751 750 751 753 759 767 766 766 775 775 768 769 770 767 769 772 771 768 769 772 772 771 770 770 775 779 778 781 786 780 769 768 772 774 774 774 776 777 778 780 780 781 782 782 782 782
807 804 802 802 795 787 784 782 782 785 781 775 774 774 775 774 771 774 775 765 761 763 763 765 767 765 762 761 761 761 757 755 755 751 749 749 748 746 748 746 744 748 749 749 752 751 754 762 766 770 778 775 768 769 769 771 781 783 771 763 765 767 768 767 767 767 769 772 777 781 779 771 767 769 773 775 774 774 774 774 776 779 779 781 781 781 781 781
Wind_Speed
15 15 15 15 15 14 14 13 13 12 11 11 10 10 10 10 10 10 11 12 13 13 12 10 10 10 9 10 10 10 9 5 3 6 6 3 5 8 12 14 12 11 10 10 10 9 8 8 6 5 6 4 3 1 1 1 1 2 2 2 1 2 2 2 4 4 4 7 9 8 6 6 8 6 5 4 5 7 6 7 7 7 8 12 17 20 20 18
16 16 16 15 15 15 14 14 13 12 11 11 10 10 10 10 11 11 11 12 13 13 12 10 10 10 10 11 10 10 8 3 6 7 6 4 9 12 14 13 10 10 10 10 11 9 7 5 6 6 4 3 1 0 1 1 1 2 2 1 2 3 2 3 5 5 2 6 9 8 6 6 8 7 5 5 8 8 6 8 8 9 11 14 18 19 19 18
16 16 16 16 15 15 14 14 13 13 12 11 10 10 10 10 11 11 11 11 12 12 12 10 9 10 10 11 10 8 7 5 6 2 4 8 12 12 13 12 9 9 8 7 7 6 4 2 5 5 4 3 0 1 1 2 1 1 2 1 3 2 4 5 5 5 5 4 9 8 6 6 6 6 5 4 8 7 5 7 7 10 12 14 16 17 18 17
17 16 16 16 16 15 15 14 14 13 12 11 10 10 10 10 10 11 11 11 11 11 11 10 9 9 10 11 10 7 5 7 2 6 4 9 12 12 12 10 8 8 5 5 5 4 4 3 4 4 6 3 1 2 1 2 1 1 2 3 4 1 4 5 5 5 4 3 6 7 7 7 6 5 4 4 6 5 5 6 5 10 13 15 15 16 17 15
17 17 17 16 16 16 15 14 14 14 13 12 11 11 11 10 10 11 11 11 11 10 11 10 9 9 10 11 9 5 5 4 4 6 5 9 12 11 9 7 6 6 5 5 4 4 5 4 4 5 5 3 0 2 2 2 2 2 3 3 4 1 3 5 5 5 4 4 6 7 7 7 6 4 4 3 4 4 4 6 6 9 14 15 15 15 15 14
19 19 19 18 17 17 16 16 15 14 14 13 12 11 11 11 11 11 11 11 11 10 10 9 8 8 9 10 7 4 5 1 4 4 6 9 11 11 8 6 4 5 6 6 5 6 6 4 5 4 4 4 2 2 2 2 2 0 3 4 5 4 5 5 4 4 4 5 6 5 4 5 6 5 4 4 4 6 5 7 7 10 14 16 16 14 13 13
21 21 21 20 19 19 18 17 16 16 14 14 13 12 12 12 12 11 11 11 11 10 9 9 8 7 9 8 4 5 4 5 5 5 7 9 11 10 9 7 5 6 7 7 7 6 5 4 3 3 5 4 2 3 2 3 1 1 4 6 6 6 6 5 4 4 4 5 5 3 3 6 5 4 4 5 3 4 6 8 9 11 14 15 14 12 12 12
22 22 22 22 22 21 20 19 18 17 15 15 14 13 13 13 13 12 12 11 11 10 8 8 7 7 7 5 4 5 1 7 5 5 8 10 11 11 10 8 7 7 8 8 7 5 4 3 3 4 4 2 2 2 1 3 1 3 5 6 5 5 5 5 4 4 5 4 4 4 5 5 2 1 3 4 4 5 7 9 10 11 13 13 12 12 11 10
23 23 23 23 23 23 22 21 20 18 17 16 15 15 14 14 14 13 12 11 11 11 8 7 6 6 6 4 7 4 4 5 1 4 7 10 11 12 10 8 8 8 8 6 5 5 4 2 3 4 4 3 2 1 1 2 2 5 5 5 5 5 4 4 4 4 4 4 3 5 5 4 2 1 3 3 4 6 8 10 10 11 12 12 11 11 10 9
24 24 24 24 24 24 24 23 22 20 18 17 17 16 15 14 14 13 13 12 11 11 8 6 5 4 4 5 9 2 6 3 1 5 6 9 10 12 11 8 9 9 7 6 6 3 2 3 3 4 4 1 2 3 0 2 4 5 5 6 5 5 4 2 4 5 4 4 3 5 6 5 3 2 3 3 4 7 9 10 11 11 11 11 11 10 9 9
24 24 25 25 25 25 25 25 24 22 20 19 18 17 16 15 14 13 13 12 11 10 7 5 4 3 4 7 7 2 5 2 3 7 7 8 9 11 10 8 8 9 8 7 5 1 2 4 4 4 2 1 2 3 2 3 4 4 4 6 6 5 5 3 4 5 4 4 2 4 5 5 5 3 1 2 5 8 9 11 11 10 10 10 11 10 8 8
24 24 25 25 25 26 26 26 26 25 22 20 19 17 15 14 13 13 12 12 10 8 6 4 4 1 4 8 3 4 4 2 5 8 8 8 7 7 7 7 8 8 7 6 4 1 3 2 4 4 1 2 2 3 4 4 3 4 3 3 5 5 4 3 3 3 4 3 1 4 4 6 6 3 2 3 5 8 9 10 10 10 10 10 10 9 7 7
24 24 25 25 25 26 26 27 27 26 23 20 18 16 15 12 12 12 12 11 9 7 5 4 2 1 5 5 3 4 3 3 6 8 8 7 5 5 5 6 7 5 3 1 3 2 2 2 5 5 2 3 0 3 4 4 3 3 3 3 2 4 3 3 3 4 4 3 2 4 4 6 6 4 3 4 5 8 8 9 9 9 9 9 9 8 7 7
24 24 25 25 25 26 27 27 28 27 23 19 16 14 13 10 10 10 10 10 7 6 5 3 3 2 5 0 6 2 1 4 7 8 9 8 6 6 5 6 6 4 2 2 1 1 2 2 5 3 2 3 2 4 5 4 3 2 2 3 2 1 2 3 2 5 6 3 2 4 3 4 7 5 4 4 6 8 8 8 9 9 9 9 9 8 8 8
23 24 25 25 26 26 27 28 29 28 23 17 14 12 10 8 7 5 6 6 6 6 5 3 2 3 6 2 6 2 1 4 8 9 9 8 7 7 7 7 6 5 3 3 2 2 3 4 6 3 2 1 4 6 4 2 3 1 1 0 2 3 4 5 3 4 4 3 3 4 3 4 7 6 4 4 6 7 7 8 8 8 9 9 9 8 7 8
23 24 25 26 26 26 27 27 29 28 20 14 11 9 7 6 5 2 4 6 7 8 6 2 3 5 6 2 5 2 3 5 8 9 9 7 4 5 7 6 5 5 4 3 3 3 4 5 3 1 1 3 5 4 3 2 3 1 1 2 5 5 3 5 4 2 2 3 4 4 3 3 7 5 4 4 6 6 6 7 8 8 9 9 9 8 6 7
23 24 25 25 25 26 27 27 29 25 16 11 9 6 4 5 6 6 8 9 8 8 4 1 2 5 3 3 4 4 6 7 8 9 9 7 3 5 6 5 5 5 5 4 4 4 5 4 2 2 4 3 4 3 3 3 3 2 1 2 4 5 5 3 3 4 3 3 4 5 3 3 5 3 3 4 6 7 7 7 8 8 8 8 8 8 7 6
24 24 24 25 25 26 26 27 28 20 12 11 6 2 3 5 7 7 8 9 7 5 2 2 3 4 2 5 3 4 7 8 9 9 9 7 5 5 3 3 4 5 7 6 6 7 5 4 3 4 4 3 4 5 3 2 3 3 4 3 2 5 5 4 4 6 6 3 3 4 1 3 2 2 2 3 6 7 7 6 6 7 8 8 7 7 7 7
25 24 24 25 24 25 25 27 25 14 12 10 2 0 1 3 5 3 4 5 3 3 2 3 5 3 2 6 4 5 5 8 10 9 10 9 7 5 3 2 4 6 8 7 8 8 5 4 5 5 5 5 5 5 3 4 5 6 5 4 5 4 4 5 6 7 7 5 5 4 1 1 4 3 2 3 6 8 7 6 6 6 7 8 8 7 7 6
27 25 25 24 24 24 24 27 21 10 12 9 0 2 2 2 2 3 5 6 7 8 7 3 6 4 1 5 6 6 6 8 8 8 10 10 9 7 5 5 6 7 8 7 8 6 3 5 8 6 3 4 4 4 5 4 4 6 5 4 4 3 3 5 5 7 6 4 6 6 5 4 6 4 4 3 6 8 8 8 7 7 7 7 8 7 7 6
28 27 26 24 24 23 23 26 17 8 13 7 3 5 2 3 4 1 1 6 7 7 8 5 5 6 2 3 6 6 6 7 8 9 11 10 10 9 6 7 8 7 7 7 4 4 4 8 9 4 1 2 2 4 5 4 3 6 6 4 2 2 3 4 4 5 5 5 4 7 7 7 8 6 6 5 6 8 9 9 9 9 8 7 7 7 7 6
28 27 28 25 24 22 22 24 13 7 13 6 4 5 3 6 5 4 4 6 4 5 7 5 4 5 4 4 4 3 5 8 9 10 10 9 10 8 6 8 8 6 7 6 4 5 7 10 8 3 1 2 3 4 6 6 5 6 4 4 2 3 4 4 4 4 5 4 2 5 6 7 9 8 8 9 8 7 8 9 9 9 10 8 8 7 7 6
28 28 28 25 24 22 21 22 11 6 11 6 5 3 3 4 6 4 5 7 4 4 6 6 6 7 7 7 6 7 7 8 10 11 11 10 10 6 6 8 7 4 7 9 8 7 8 9 8 5 3 5 5 5 7 6 4 5 4 4 2 2 1 2 4 5 4 3 2 1 5 5 7 9 9 11 10 7 6 8 8 8 9 9 9 8 7 8
29 29 29 26 25 20 20 21 9 4 9 8 6 1 1 4 7 4 5 6 4 4 4 4 5 6 6 3 8 13 8 5 8 11 13 12 8 5 6 7 6 5 6 9 9 9 7 3 2 5 6 7 7 6 7 6 5 5 3 4 3 1 1 2 5 6 4 4 3 4 4 3 5 8 9 10 11 9 7 8 9 9 9 9 9 9 9 8
31 31 30 28 25 20 20 15 3 2 10 7 4 3 1 6 7 4 5 5 3 4 3 5 4 4 5 4 9 11 6 5 6 9 15 14 8 6 4 4 5 6 7 8 8 8 6 4 3 5 8 10 9 7 7 6 5 5 3 3 4 1 3 5 8 6 3 4 3 4 3 2 2 4 6 7 9 11 10 10 10 10 10 10 9 10 10 9
32 32 31 29 26 22 16 5 2 7 12 3 5 4 2 8 6 3 4 5 4 5 5 6 4 5 7 7 10 8 6 7 3 7 14 13 9 4 4 5 4 3 4 6 6 4 3 5 4 7 8 10 10 8 7 5 6 3 4 3 1 3 5 8 9 5 3 2 3 4 3 0 1 2 3 5 7 10 11 12 12 10 10 10 9 10 10 10
34 32 32 30 26 21 11 3 5 11 7 2 4 4 4 9 4 4 4 4 4 4 5 4 2 5 5 7 11 6 4 9 7 7 11 11 9 5 4 6 4 2 3 4 4 3 4 7 7 8 8 9 9 7 5 6 7 0 4 1 2 4 5 7 7 4 1 2 4 4 3 3 1 3 4 5 6 8 10 12 12 11 11 12 11 11 12 11
36 34 32 29 23 16 7 7 9 7 2 1 3 4 5 7 3 4 5 4 3 2 3 4 3 3 3 6 10 4 3 9 8 8 8 8 8 5 6 6 4 4 6 6 2 5 5 8 9 9 9 9 4 1 3 5 5 3 5 1 2 3 4 5 5 2 1 2 2 3 2 4 2 4 4 4 4 5 8 10 12 13 13 13 12 12 13 12
37 35 31 26 19 10 5 7 7 4 3 3 4 3 5 5 3 4 5 3 3 2 1 3 4 5 5 7 9 5 3 5 3 6 9 8 7 5 4 4 5 3 5 8 4 5 3 3 4 6 7 4 3 6 3 4 2 4 4 3 3 3 4 4 4 2 2 4 2 1 2 5 2 4 4 2 1 2 3 5 7 10 11 12 12 11 12 11
37 34 27 20 12 5 2 6 8 7 6 5 3 2 4 5 4 5 5 2 2 3 2 3 4 6 8 9 9 7 6 3 3 7 9 7 8 7 4 2 5 6 5 8 7 1 3 2 1 4 3 3 7 6 2 1 3 7 6 4 4 4 4 4 3 3 4 5 1 1 2 5 4 2 4 1 1 2 2 2 3 4 7 10 11 11 11 10
37 30 19 12 7 1 2 2 3 4 5 3 1 3 6 5 4 5 3 1 1 3 4 5 5 6 10 10 8 8 8 4 7 10 8 6 8 8 5 4 5 6 5 6 7 5 6 6 4 2 2 4 6 6 4 4 6 6 5 4 4 3 3 4 3 3 6 3 3 2 2 4 5 1 3 3 3 2 2 2 2 2 3 6 8 10 11 11
34 23 10 8 7 1 3 2 2 6 7 1 3 5 6 4 5 5 2 2 2 3 2 4 6 6 8 9 7 8 9 6 8 10 9 8 8 7 8 7 4 5 6 6 7 7 8 7 5 6 5 6 7 6 5 5 6 6 4 5 5 3 3 5 3 3 5 1 4 3 2 4 6 3 1 2 3 1 1 2 4 2 0 2 5 7 9 10
29 15 6 9 8 4 5 6 7 8 5 3 5 6 5 5 5 2 1 2 1 2 1 2 4 4 5 7 7 8 8 6 8 9 8 8 7 8 9 8 5 5 4 4 6 7 7 6 7 7 6 8 9 5 5 6 6 6 5 4 5 3 4 5 3 4 4 2 5 3 2 4 6 2 1 1 2 2 1 1 3 3 2 1 3 4 7 9
23 8 7 10 10 9 8 7 9 10 6 5 6 6 7 6 2 0 2 2 3 2 0 1 1 4 6 7 6 8 8 6 9 8 8 8 7 7 9 9 10 8 4 3 4 4 5 5 9 8 5 9 11 6 3 3 6 6 3 4 5 3 3 4 2 3 2 2 4 4 3 4 4 1 2 2 3 3 2 2 2 2 2 1 1 3 4 7
17 5 9 11 10 12 8 1 5 8 7 6 6 6 7 6 2 1 1 2 3 1 0 1 4 6 8 7 5 7 6 4 10 9 7 9 8 7 8 8 11 9 6 4 3 3 6 1 7 5 3 7 10 5 3 4 4 4 3 5 5 2 2 3 3 5 6 2 3 4 4 3 1 3 3 2 4 4 3 2 2 2 3 2 1 1 2 3
14 4 7 7 7 11 10 5 3 4 5 6 7 7 6 2 1 1 2 2 3 4 5 4 5 6 8 7 7 8 5 2 9 9 7 9 8 8 8 5 9 11 8 5 2 4 6 2 8 5 3 5 6 4 5 5 2 4 5 5 0 3 4 4 2 2 5 5 1 1 5 3 2 4 4 3 3 4 3 3 3 3 3 2 3 2 0 1
14 3 3 6 6 10 12 10 5 2 6 6 7 5 2 1 3 3 3 3 2 3 7 4 4 4 6 7 7 10 8 5 8 7 6 8 7 8 10 7 7 11 11 8 3 1 4 2 8 7 6 5 2 4 6 4 3 2 3 4 4 1 4 4 2 2 4 5 1 1 4 3 1 1 3 4 5 4 3 2 3 2 1 2 4 4 2 1
11 4 1 5 8 12 12 11 5 4 5 6 6 3 1 1 2 3 3 3 3 3 6 4 1 2 4 6 6 9 9 7 8 8 6 6 5 7 11 10 8 11 11 9 4 1 3 2 6 6 5 7 5 6 6 4 4 4 1 3 3 2 2 2 3 3 3 3 1 0 3 3 2 1 2 3 4 3 3 2 2 2 2 2 3 5 4 3
8 5 2 5 8 11 11 9 4 5 5 6 6 2 1 2 1 1 2 2 3 4 4 3 1 1 3 3 2 7 9 7 7 7 7 6 5 5 8 8 7 9 9 9 5 2 3 4 3 6 6 6 7 7 6 7 6 3 2 4 3 2 1 1 2 3 4 4 2 1 2 0 2 4 4 2 1 2 3 2 1 2 3 2 3 4 4 4
6 4 2 5 9 10 9 5 4 5 4 4 4 1 1 2 2 1 1 2 4 4 3 3 1 2 3 3 2 3 6 7 6 6 6 6 5 5 7 7 6 7 8 9 6 2 3 4 1 6 7 5 7 6 4 4 6 6 6 5 4 2 2 3 3 3 4 5 3 3 4 2 5 4 3 1 1 2 2 2 2 2 3 4 4 4 4 5
5 3 3 5 10 10 7 5 4 3 4 3 2 1 1 2 4 3 2 2 4 4 3 5 5 5 4 4 3 1 3 6 6 7 5 6 8 6 6 7 6 7 8 8 8 6 4 4 3 5 6 6 4 2 4 4 2 4 5 5 4 3 3 4 3 3 3 5 4 4 6 3 6 2 1 2 2 3 3 2 2 3 3 4 4 5 5 5
5 3 3 6 11 9 6 5 2 2 4 1 1 2 1 2 5 4 2 3 5 5 4 5 6 7 6 6 4 2 4 6 6 7 5 6 9 6 4 4 7 9 8 6 7 4 2 3 5 4 2 1 5 5 2 3 3 5 5 4 3 4 5 5 4 2 2 3 2 3 6 2 6 3 1 2 2 3 3 2 1 3 4 4 4 4 5 4
4 5 2 5 10 8 6 4 3 3 3 1 1 2 2 3 4 4 3 4 5 5 5 5 6 7 6 5 5 4 4 5 6 7 5 6 6 2 4 6 8 9 8 6 6 5 1 3 5 3 1 2 4 5 3 2 4 7 6 4 5 5 5 5 4 2 3 3 2 4 5 1 6 4 3 3 3 2 3 2 1 2 4 4 3 3 4 4
4 4 2 4 7 5 6 3 2 4 2 2 3 4 4 4 5 5 4 4 4 4 5 5 6 6 4 4 5 5 4 4 7 7 5 5 2 4 4 8 9 9 9 4 5 7 5 4 4 5 4 5 5 5 5 5 6 7 4 4 5 6 4 4 2 2 5 5 4 5 5 2 6 4 4 5 4 3 3 2 1 1 2 2 2 2 2 3
4 3 2 1 2 2 3 3 3 3 2 2 5 5 4 4 4 4 6 5 4 4 5 5 4 4 5 5 6 7 7 6 6 4 4 5 3 3 3 8 9 10 5 2 1 8 6 4 5 6 6 5 5 4 3 4 6 6 4 5 7 8 7 6 4 4 6 4 3 6 5 3 7 6 5 5 5 4 3 3 2 1 1 1 1 2 1 2
4 2 1 1 1 0 1 1 3 4 2 3 4 4 5 6 4 3 5 5 4 4 6 6 5 6 7 8 9 9 9 9 7 4 5 5 3 3 3 7 9 7 2 2 4 8 4 5 7 7 7 5 3 1 0 2 4 6 6 8 9 9 9 7 6 5 4 2 4 6 5 2 3 6 5 5 5 5 4 4 4 3 3 2 2 2 1 2
3 2 3 2 1 1 2 1 1 3 1 2 3 2 4 6 3 3 4 4 2 4 6 6 6 7 7 8 9 9 9 10 8 7 8 6 2 3 4 7 7 5 5 4 9 7 3 6 9 10 9 6 3 0 1 4 7 7 7 9 10 10 10 10 8 5 2 3 5 3 3 6 4 4 5 5 5 5 5 5 4 3 3 2 2 2 1 1
2 2 2 2 2 2 1 1 2 2 3 3 3 3 6 7 6 4 3 3 3 4 4 6 7 7 5 5 6 7 8 9 9 9 8 6 4 4 6 7 7 7 8 8 8 5 5 7 9 10 10 5 2 2 3 6 8 7 7 8 9 11 11 11 11 6 4 7 7 1 4 8 6 2 3 3 4 5 4 4 3 3 2 2 2 2 2 1
2 2 0 0 3 4 4 4 4 5 6 4 4 5 7 8 7 4 2 4 6 4 4 6 5 3 4 4 5 7 6 6 8 7 4 4 6 6 6 6 6 8 9 9 7 4 5 4 5 8 9 6 5 5 5 6 6 6 8 8 9 11 11 11 11 8 6 8 8 3 5 9 5 1 3 4 3 4 5 5 4 4 3 2 1 2 2 1
3 3 2 2 5 5 5 5 5 6 5 4 5 6 6 8 7 4 2 5 6 3 3 5 4 5 5 4 5 6 1 3 4 3 1 3 5 5 5 4 5 8 11 9 7 5 4 2 3 6 8 7 7 6 6 7 7 7 9 8 9 10 10 10 9 7 7 8 8 7 8 8 3 4 5 5 4 5 6 6 6 4 3 3 2 2 2 2
4 4 3 5 5 2 4 4 4 5 5 6 6 5 6 7 6 4 5 7 8 6 3 5 6 6 5 5 4 1 3 6 7 6 5 5 4 3 3 2 1 7 11 9 7 7 6 4 4 7 8 7 8 9 8 7 7 9 10 10 10 10 10 9 8 7 8 9 9 9 9 6 4 7 7 6 6 7 8 7 6 5 4 3 3 2 1 1
5 3 2 4 4 2 3 4 4 5 4 3 4 5 5 5 2 4 6 6 8 7 3 5 7 7 5 5 1 5 8 9 9 8 7 7 6 6 5 5 5 5 8 9 8 7 8 6 5 7 8 6 8 9 8 7 8 9 8 9 11 12 10 9 8 7 8 9 8 8 5 0 6 8 7 8 8 8 7 6 5 5 5 4 3 2 2 1
Wind_Direction
22 22 20 18 16 14 12 9 7 7 6 4 360 354 349 348 349 347 350 353 355 354 349 348 345 343 335 331 334 334 336 332 291 227 232 232 171 160 154 150 146 146 147 158 174 177 173 189 193 208 233 239 260 293 143 203 203 223 251 231 195 88 85 17 68 95 162 156 136 148 168 148 140 138 132 147 132 120 128 126 101 80 94 105 113 127 134 138
22 21 20 16 12 11 9 7 6 5 3 0 356 351 346 343 343 342 344 349 353 351 349 345 342 343 333 334 339 337 349 320 249 228 221 182 156 156 150 152 151 142 147 169 185 191 197 192 190 208 239 253 247 332 184 196 235 251 265 183 56 57 87 0 44 71 98 136 135 147 164 152 141 141 159 161 137 136 129 132 128 107 109 117 124 132 137 143
22 19 16 13 9 7 5 4 2 1 359 354 349 345 341 338 337 336 336 341 348 348 347 343 341 341 335 336 339 348 352 278 238 159 156 158 152 151 148 154 153 146 160 196 206 218 245 207 197 223 262 269 103 316 229 160 216 282 286 102 82 105 98 43 49 54 35 114 142 146 152 147 138 146 170 163 146 151 126 132 149 131 131 134 134 139 144 148
21 18 14 10 6 3 2 1 358 356 352 348 344 339 336 333 330 329 329 331 337 344 342 342 339 335 337 335 340 360 325 260 168 89 130 153 151 151 146 148 152 160 185 226 222 229 235 196 203 244 274 277 114 242 212 127 220 37 347 36 64 129 96 57 52 60 57 135 148 145 152 145 140 156 171 159 142 148 127 120 140 141 143 144 143 146 149 152
19 17 13 9 4 0 358 357 355 351 347 343 338 334 330 326 323 321 321 322 327 336 337 339 334 330 337 334 344 0 286 251 103 103 148 156 156 155 150 153 157 172 203 214 197 196 201 202 233 250 270 286 339 225 106 91 219 79 47 43 47 18 94 81 58 61 86 131 149 153 156 141 145 163 180 175 103 91 109 100 111 137 145 148 148 150 153 155
18 16 13 10 5 360 356 354 351 346 343 338 334 330 323 319 316 313 314 314 316 325 332 335 331 329 334 333 346 321 275 5 89 138 158 168 168 163 165 174 176 185 203 203 191 196 200 221 253 267 287 290 333 349 67 89 240 65 67 67 58 48 82 100 82 71 100 142 154 146 140 147 166 161 172 197 85 70 97 101 109 131 142 148 148 153 158 157
18 16 14 11 7 2 358 353 348 343 339 334 331 325 319 314 308 306 305 305 308 316 324 328 327 330 334 336 333 266 261 66 91 155 166 177 180 179 180 190 202 194 202 205 198 204 215 243 280 311 300 289 5 21 70 129 236 317 87 79 69 70 82 105 105 92 103 134 139 131 160 173 183 152 158 196 139 96 108 108 115 130 141 148 150 156 158 154
16 15 13 11 8 4 360 355 348 342 336 331 327 320 315 308 301 299 296 296 301 306 314 323 325 330 338 336 291 249 141 70 89 166 175 177 187 194 186 194 205 197 207 210 205 214 233 269 329 312 297 336 11 27 136 174 162 51 84 90 83 84 82 93 101 105 113 122 135 166 176 163 158 132 164 175 148 134 124 119 124 135 146 151 154 156 155 154
14 13 12 10 7 5 2 357 350 343 336 329 323 317 310 302 297 291 288 289 291 298 306 314 317 323 340 315 273 263 85 58 75 162 169 175 190 195 187 198 201 197 206 202 210 233 256 312 10 322 317 357 357 84 169 243 62 62 84 104 98 97 90 92 102 107 119 119 155 185 172 140 130 213 182 148 141 148 137 133 134 141 152 156 156 155 154 157
11 11 9 8 5 3 1 358 352 345 336 328 322 315 308 298 292 284 281 281 282 291 295 300 306 316 332 285 273 284 80 45 145 140 150 172 188 190 193 206 197 197 195 185 203 228 311 353 14 317 294 316 37 74 86 339 61 88 103 108 100 105 102 105 120 118 128 113 142 199 174 141 148 209 181 129 161 166 149 143 143 148 154 157 157 153 156 160
9 8 6 5 3 1 359 356 353 347 338 330 321 314 307 296 287 278 273 272 275 281 281 284 282 298 299 272 282 19 87 62 146 146 146 165 183 187 197 203 190 194 185 180 195 226 344 355 341 289 264 159 100 97 86 68 99 117 125 122 117 126 120 127 140 133 154 125 126 203 172 152 165 191 146 111 170 172 157 149 150 153 151 156 155 149 158 163
5 5 4 3 1 359 357 354 352 348 341 331 322 317 309 297 284 274 268 265 266 266 259 258 250 302 286 262 289 56 87 102 153 150 145 159 179 187 198 193 187 195 184 179 165 75 333 340 303 287 294 261 180 122 110 122 137 131 183 171 127 154 140 126 157 156 169 149 174 199 182 181 174 159 91 117 167 172 164 154 154 154 149 156 155 149 160 163
2 1 1 0 359 358 355 353 350 348 342 332 326 321 311 301 287 273 264 260 254 245 229 228 209 166 272 265 79 79 87 122 157 150 151 160 165 171 181 180 187 199 194 188 115 80 321 309 298 304 280 259 121 92 131 148 166 150 230 261 149 182 150 106 166 171 157 138 202 206 201 185 155 105 96 138 165 172 168 159 159 156 151 158 157 156 162 163
360 358 358 358 357 356 354 351 349 347 343 334 329 324 318 310 295 277 262 249 232 214 192 185 159 185 261 8 92 148 119 119 164 164 164 164 149 145 154 168 183 196 222 316 37 7 307 285 278 266 242 280 99 146 169 162 188 196 275 271 257 221 107 84 149 175 167 145 210 213 208 165 129 99 112 152 171 174 169 159 162 158 156 160 160 165 162 164
357 356 355 355 355 355 353 349 347 347 342 337 334 330 327 324 316 289 247 218 194 176 148 147 160 223 260 128 110 207 184 145 176 178 176 169 156 145 147 162 176 193 227 273 274 274 281 262 253 214 153 179 174 189 193 164 181 223 323 292 351 21 106 96 108 181 182 153 198 226 230 136 110 95 119 162 177 179 171 160 165 163 162 163 163 171 166 163
353 353 352 352 353 353 352 349 346 345 343 340 338 334 341 1 16 56 147 151 154 140 128 149 187 241 278 103 121 207 190 166 168 173 182 183 174 139 141 158 172 190 213 245 251 247 243 242 253 244 171 169 193 219 212 177 150 159 321 33 22 16 85 99 102 144 154 156 175 211 241 108 91 82 114 168 178 183 183 168 170 167 166 168 166 172 169 161
351 350 349 349 350 351 351 348 345 346 346 344 341 339 4 43 72 90 109 125 128 121 132 268 219 245 281 100 143 171 151 148 151 165 178 191 188 133 141 163 170 179 191 205 217 217 219 220 210 216 217 203 222 240 210 180 123 106 345 38 52 29 39 90 129 145 153 190 177 196 246 47 54 56 109 170 184 189 195 179 174 170 169 173 172 172 169 168
350 348 347 346 348 349 350 347 345 348 353 348 342 351 20 78 95 90 103 115 115 126 180 257 237 251 192 153 168 127 128 139 148 159 167 177 180 156 155 169 163 176 187 196 205 207 205 203 219 228 209 200 220 228 216 87 42 13 4 3 38 49 49 77 119 150 160 187 175 193 266 33 345 306 100 186 197 199 203 191 184 176 172 174 180 178 169 174
348 347 346 344 345 346 348 347 345 353 0 352 343 18 24 109 110 127 156 148 167 227 262 173 205 279 94 152 135 97 124 140 145 153 158 167 175 179 186 172 179 190 194 193 189 196 211 206 216 235 215 192 204 235 299 27 15 344 350 342 345 31 57 71 97 145 163 179 170 171 149 148 263 246 141 208 207 206 207 200 201 191 179 177 186 184 170 179
348 346 344 343 343 343 346 345 345 360 1 354 221 240 247 211 217 177 187 217 232 263 291 238 221 271 26 147 130 118 137 151 163 160 158 167 168 172 179 177 185 194 204 202 182 180 227 231 217 227 205 163 200 251 312 349 350 318 312 317 341 33 72 82 105 148 178 206 174 168 166 190 244 224 166 214 217 211 209 203 206 207 199 189 191 187 175 182
347 345 343 343 341 340 343 343 344 1 359 4 190 245 297 354 317 354 330 253 228 239 262 256 244 265 277 135 134 142 156 171 182 162 156 170 176 175 171 180 190 188 198 210 193 164 215 239 226 220 95 106 258 282 297 302 303 299 299 306 330 59 82 90 107 143 189 237 178 173 191 197 218 209 176 205 223 215 210 208 207 208 212 208 204 197 186 182
347 345 343 341 339 339 340 340 340 352 1 12 215 258 25 33 350 339 321 281 245 214 236 234 230 250 234 195 177 193 197 178 171 163 161 176 192 191 167 187 208 185 172 200 216 188 208 234 224 180 112 241 271 287 277 280 286 285 287 293 312 89 105 119 131 142 185 244 159 172 219 213 204 197 182 200 221 221 212 217 218 214 215 216 216 209 203 194
348 345 342 340 338 336 336 337 328 334 358 346 267 294 53 27 346 312 262 279 277 191 207 212 215 219 204 210 206 206 210 179 170 172 172 187 201 204 184 192 211 180 169 197 211 204 205 224 224 192 183 234 251 257 261 268 261 266 279 286 322 108 171 137 147 160 182 249 336 245 244 232 202 195 192 200 211 213 206 216 226 228 227 224 225 221 215 206
349 345 342 339 335 333 334 332 314 299 341 318 278 301 55 346 340 304 250 276 270 177 180 193 221 224 194 182 181 192 205 181 179 172 174 194 190 180 205 199 201 195 189 202 212 225 216 178 221 218 207 234 251 241 244 256 234 216 242 289 334 74 296 42 129 160 180 213 259 281 253 210 192 199 202 199 200 203 199 206 215 221 231 234 234 233 227 217
348 345 341 338 334 332 329 323 268 277 321 304 229 181 303 336 334 282 258 272 226 160 153 170 203 212 171 148 169 186 200 178 187 165 171 198 187 160 196 198 213 205 177 191 210 234 221 129 130 214 212 225 242 241 234 253 249 194 134 340 331 89 128 124 143 168 207 190 193 269 266 136 152 204 201 183 191 203 201 206 212 210 217 226 232 236 233 225
347 344 340 335 331 329 325 315 157 314 310 272 169 184 284 331 326 235 251 273 202 145 153 174 184 166 159 165 165 180 202 174 147 143 168 197 200 195 204 175 220 236 154 182 215 241 200 139 180 216 214 216 233 245 227 234 259 218 92 21 320 149 154 156 162 191 263 98 142 239 268 86 141 163 156 167 195 210 204 209 215 210 210 213 218 228 230 227
346 344 339 332 329 330 327 307 314 312 300 152 161 212 294 328 315 198 242 253 190 140 150 159 158 159 156 164 167 189 188 137 122 151 175 194 192 219 234 177 194 211 162 204 218 199 173 169 193 213 217 215 224 234 198 211 254 309 77 51 157 157 174 172 179 210 293 83 147 200 249 281 231 121 128 178 206 211 209 214 215 210 210 211 211 214 222 225
345 343 337 329 325 323 300 279 302 304 284 147 204 235 308 320 265 206 258 248 151 114 149 119 97 152 138 159 184 218 108 134 159 164 167 194 192 214 236 211 218 178 175 231 211 121 168 192 188 198 211 210 212 55 107 209 248 60 76 104 142 166 185 183 203 221 185 213 192 168 226 268 235 133 143 191 209 206 211 215 216 214 211 212 212 206 212 221
345 343 336 327 325 322 275 253 263 251 236 238 223 257 309 291 235 225 264 263 148 145 138 119 137 165 153 160 192 214 157 169 199 135 148 189 205 237 265 244 261 226 190 245 265 99 135 190 182 211 220 190 81 52 59 242 247 97 124 150 136 161 180 199 226 207 205 248 262 110 262 284 261 145 147 193 199 153 177 188 204 214 213 216 217 205 203 213
346 343 336 330 335 346 279 238 242 244 239 229 226 271 261 231 233 236 233 230 154 134 118 150 160 162 166 173 187 198 193 170 116 139 160 183 193 220 274 285 261 254 213 237 257 172 124 124 243 255 268 64 77 80 89 213 118 137 169 172 159 172 178 203 230 224 240 249 207 107 282 292 283 140 112 106 92 60 51 105 136 184 208 217 218 209 199 200
346 343 337 336 338 280 231 231 225 218 199 193 239 248 230 210 240 248 210 140 174 143 152 171 159 164 183 193 190 183 192 166 142 164 172 175 187 202 221 211 218 233 221 216 220 199 183 190 194 177 133 113 120 117 112 134 151 177 203 195 193 192 187 210 218 235 256 247 113 112 227 263 270 281 76 100 114 68 0 357 38 120 188 209 215 216 206 198
346 343 343 348 349 280 250 271 152 157 156 149 290 232 214 200 225 242 165 159 203 157 155 160 159 178 193 207 204 179 188 183 167 182 187 187 194 197 211 213 194 205 217 200 184 181 188 187 153 133 153 181 171 140 134 161 186 212 217 205 213 201 200 227 219 234 259 204 114 127 190 249 263 276 28 149 152 94 16 344 345 5 75 204 208 218 215 206
347 346 352 351 352 341 288 266 225 201 191 262 256 214 214 225 220 229 188 188 109 61 30 123 157 181 192 210 202 179 191 186 174 192 196 196 206 202 208 225 244 254 243 191 179 177 172 160 160 163 169 201 213 197 173 181 196 212 214 220 233 223 225 234 209 225 246 133 116 131 180 254 259 259 39 145 143 95 67 9 351 5 16 254 220 219 217 211
349 351 358 354 350 344 320 268 231 221 222 237 224 198 213 227 199 75 222 157 57 33 113 92 216 215 210 219 189 175 203 196 178 194 196 198 218 212 205 214 228 254 269 220 213 205 199 171 172 178 154 182 212 243 268 209 190 206 232 254 264 276 269 270 260 269 292 110 131 157 201 267 272 129 61 68 113 112 100 74 28 30 59 49 236 228 222 212
357 18 10 6 360 358 357 263 193 192 205 218 209 196 210 219 192 176 203 85 37 337 275 285 255 223 206 212 193 189 223 204 183 199 207 203 215 213 211 205 201 221 248 225 184 212 250 180 131 135 104 177 206 229 270 259 202 185 220 243 262 306 301 300 322 325 324 297 177 178 231 289 303 181 175 146 142 132 121 127 103 55 71 82 125 196 222 216
3 25 14 28 26 17 28 51 103 173 220 221 204 205 212 227 12 73 49 8 347 337 311 245 217 223 204 189 188 193 214 212 186 198 209 211 223 219 218 211 191 204 226 229 160 191 238 133 119 142 152 181 223 207 206 257 240 160 203 217 179 4 296 278 271 287 287 275 244 199 254 252 166 196 193 197 194 159 159 163 110 58 55 79 74 79 71 222
355 339 20 61 38 13 15 18 19 253 248 227 211 220 210 96 33 39 29 344 324 326 300 251 185 230 218 192 192 185 185 193 190 200 203 198 216 218 215 221 206 208 221 239 248 215 250 152 131 163 164 145 238 205 184 242 268 216 207 161 109 52 275 275 271 239 250 263 258 266 287 291 266 239 173 201 226 193 182 166 121 109 62 64 71 71 52 42
336 287 123 57 11 354 359 1 343 257 243 226 222 243 248 162 66 36 9 341 309 289 285 270 186 267 233 211 193 170 177 189 182 199 210 187 188 199 209 214 203 207 221 234 235 191 272 237 132 150 151 132 176 205 177 183 236 276 304 136 171 224 218 232 274 277 270 283 285 113 312 305 300 352 126 193 232 207 182 160 133 124 76 44 62 73 55 36
302 255 153 39 356 348 353 350 307 242 226 224 222 205 226 218 114 26 325 318 286 272 278 290 326 264 246 246 200 156 182 201 184 196 213 196 177 176 203 213 192 193 207 219 224 182 243 259 142 142 144 142 180 208 198 174 183 233 214 181 219 274 283 253 278 294 294 304 327 336 293 242 74 17 6 0 252 197 171 142 92 62 67 41 35 54 48 36
288 261 112 32 351 348 348 320 252 229 218 233 246 183 171 247 240 247 258 278 271 263 281 312 296 255 256 265 269 177 196 218 209 210 209 191 190 179 188 206 190 176 187 206 222 202 192 246 200 135 147 181 198 208 235 198 174 194 208 201 203 215 259 258 248 268 293 304 320 313 300 58 72 29 353 25 121 142 125 113 93 57 57 50 36 33 36 40
286 271 104 27 348 346 330 259 218 230 229 233 272 232 173 298 282 258 207 229 258 254 278 293 279 279 292 269 251 200 214 226 214 219 213 192 212 210 182 199 194 163 170 197 209 207 200 222 220 165 174 199 173 95 336 324 259 232 234 222 211 206 231 253 235 209 255 293 311 315 309 28 80 64 16 74 122 131 123 131 112 84 68 61 47 33 33 34
284 321 60 6 344 336 296 240 170 242 243 220 302 248 310 312 276 265 232 218 238 233 236 265 265 265 271 264 262 271 248 233 211 215 220 206 220 220 155 182 194 173 179 197 188 184 206 230 230 216 198 158 81 70 353 312 290 267 268 261 246 231 235 256 270 218 209 259 293 296 293 29 93 103 97 98 114 123 130 146 125 102 90 75 55 43 36 30
320 338 355 344 339 325 279 240 167 214 229 88 1 246 249 264 255 254 243 226 232 227 218 238 252 248 248 253 263 264 243 235 225 221 226 222 221 180 120 166 189 190 199 197 163 154 180 230 228 233 202 131 105 109 146 195 231 238 236 235 252 259 258 273 303 317 263 246 234 261 271 108 105 117 122 123 138 151 160 165 139 108 99 89 70 50 31 22
325 308 282 330 333 302 266 263 223 218 189 148 246 236 218 244 259 258 256 242 234 236 235 241 242 236 242 251 254 258 249 235 227 219 235 242 189 84 133 181 191 200 207 206 164 171 195 214 215 229 216 193 186 175 169 182 214 236 224 197 236 253 248 257 274 277 266 258 251 271 282 89 114 138 145 151 167 184 184 159 130 102 97 97 88 68 34 19
304 260 211 306 324 282 276 317 315 273 215 219 250 245 225 227 231 251 280 274 248 255 259 252 246 241 247 250 248 254 255 249 233 214 241 244 166 108 182 194 199 208 217 334 146 172 192 207 204 230 233 218 218 210 199 200 205 219 209 190 219 226 211 225 245 239 248 240 217 255 283 75 120 149 164 167 177 200 193 162 155 150 134 136 108 72 40 24
315 289 256 222 141 252 260 9 306 281 272 263 253 239 240 238 202 200 266 258 229 256 265 258 259 250 240 242 246 246 239 234 233 233 250 239 182 120 165 190 206 208 150 16 205 181 188 211 208 234 249 249 249 176 75 271 224 215 212 201 212 217 210 222 248 254 255 240 221 236 262 291 153 153 168 181 183 201 197 177 182 186 176 164 130 91 59 40
302 317 340 338 309 246 184 152 271 278 305 290 271 239 245 252 233 191 217 228 228 265 263 252 249 246 235 233 243 246 234 224 225 237 251 247 197 104 147 190 207 176 130 181 204 189 196 209 207 225 239 252 282 105 155 249 252 251 235 212 208 207 207 219 238 259 276 257 259 223 205 255 254 148 163 181 181 199 201 184 185 184 170 133 107 115 123 92
293 324 12 351 295 264 230 26 344 307 278 260 268 270 252 254 255 228 209 231 244 254 259 234 220 235 253 250 252 250 232 222 222 227 239 242 216 157 161 187 194 169 167 192 194 193 227 213 198 215 224 225 240 222 214 237 251 258 245 224 209 203 209 224 236 242 237 253 276 40 172 236 254 178 156 153 167 191 180 157 152 143 136 125 129 158 157 132
295 293 30 228 277 289 299 315 315 285 263 247 248 251 247 249 253 247 252 265 244 226 254 248 219 235 272 260 250 246 233 234 230 215 215 245 232 206 182 182 180 178 190 196 183 204 253 220 187 215 221 206 193 199 217 229 234 237 234 226 214 211 216 228 236 235 232 249 268 272 233 245 251 164 121 112 132 154 139 135 146 147 149 160 183 184 167 166
322 321 358 279 271 280 282 277 271 264 249 229 236 240 241 247 252 252 253 261 253 216 224 268 294 322 304 264 237 235 249 337 283 250 345 272 239 223 209 194 175 183 198 200 182 191 238 215 186 218 223 208 192 190 206 220 227 230 227 220 219 224 225 229 240 240 230 243 253 250 251 251 219 124 122 128 138 150 154 158 158 155 164 184 211 218 184 186
323 322 334 294 280 269 263 254 250 262 249 226 229 232 233 237 249 280 266 253 260 268 289 315 329 330 293 237 215 238 9 344 304 301 310 282 272 282 258 274 256 195 197 199 188 190 207 200 181 211 231 219 195 198 206 211 229 240 234 223 219 226 232 233 238 237 237 251 250 240 250 251 163 135 140 149 160 172 172 166 158 158 171 195 223 236 216 209
311 268 245 278 277 243 253 251 234 249 258 252 245 242 245 241 240 286 271 239 237 254 292 328 327 320 273 226 189 2 339 316 297 295 292 276 279 284 270 277 287 244 207 198 196 195 203 205 196 215 239 228 193 202 211 208 228 240 236 230 225 225 236 242 240 234 236 252 258 249 256 202 130 149 162 163 173 184 177 165 162 161 170 194 225 241 251 256